Location: Newark
(52.3500°N, 175.9667°E)
Time: 23:29:24
(UTC+00:00)

S-56A Canister/Altair - Pass Details

Date: 26 April 2021
Orbit: 632 x 2501 km, 38.9° (Epoch: 11 May)

Event Time Altitude Azimuth Distance (km) Brightness Sun altitude
Rises 10:27:37 0° 237° (WSW) 5,211 11.7 -20.1°
Reaches altitude 10° 10:32:01 10° 227° (SW) 3,886 10.9 -20.4°
Enters shadow 10:38:44 27° 186° (S) 2,282 9.4 -20.9°
Maximum altitude 10:39:41 28° 175° (S) 2,186 - -20.9°
Drops below altitude 10° 10:45:17 10° 119° (ESE) 2,773 - -21.3°
Sets 10:47:52 0° 107° (ESE) 3,510 - -21.4°
